Location: Newark
(46.1292°N, 1.0086°W)
Time: 15:49:31
(UTC+00:00)

Transit 4A - Pass Details

Date: 22 November 2019
Orbit: 870 x 975 km, 66.8° (Epoch: 08 December)

Event Time Altitude Azimuth Distance (km) Brightness Sun altitude
Exits shadow 04:02:58 17° 6° (N) 2,102 9.8 -32.7°
Maximum altitude 04:05:05 20° 33° (NNE) 1,920 9.8 -32.3°
Drops below altitude 10° 04:09:21 10° 80° (E) 2,533 11.0 -31.6°
Sets 04:12:30 0° 97° (E) 3,460 12.0 -31.1°
